Temp
78 72 69 76 79 81 78 78 78 82 87 83 83 83 82 82 85 84 85 83 85 86 89 90 90 91 91 90 88 87 86 86 87 88 88 89 89 91 92 94 92 91 91 91
72 68 78 81 80 76 76 74 76 83 86 83 83 82 87 84 83 86 85 84 85 86 88 88 88 90 90 89 88 86 85 85 85 89 89 91 91 93 94 95 92 93 92 91
70 75 80 77 75 71 73 73 76 77 82 84 82 79 82 87 85 87 88 88 88 87 87 87 87 88 90 88 87 86 85 84 85 88 89 88 90 91 90 91 92 93 92 92
72 80 73 74 71 74 70 79 77 76 74 70 82 69 79 84 82 84 86 87 88 89 89 90 89 89 90 90 90 88 86 84 85 86 88 85 88 88 92 93 94 94 92 92
70 72 72 69 72 77 72 81 77 75 73 75 76 72 80 85 80 82 86 88 90 90 91 91 90 90 91 91 91 89 86 85 86 85 86 87 86 92 93 93 91 89 90 91
73 82 78 76 79 78 79 75 75 76 74 64 73 73 76 77 82 85 88 89 90 92 92 92 93 93 92 93 92 91 86 84 85 85 84 85 86 88 91 90 91 92 93 93
70 72 77 80 74 78 75 71 63 60 61 61 77 72 76 86 89 90 90 90 91 93 93 92 91 91 91 90 90 90 87 83 84 85 85 85 85 86 86 87 90 91 93 94
63 60 72 78 75 73 72 73 65 54 60 66 76 68 75 88 90 94 95 96 95 93 93 93 92 92 91 90 90 89 87 84 85 85 85 85 86 89 90 89 93 93 94 95
61 62 71 71 78 78 72 66 79 71 73 67 74 76 84 89 89 90 91 93 94 95 95 94 94 93 92 90 90 89 88 84 85 86 85 85 86 86 90 89 90 92 92 95
62 55 68 71 71 74 73 80 66 69 56 56 68 71 72 79 82 88 90 93 95 97 97 96 95 94 94 93 92 90 89 85 86 88 87 88 87 87 88 89 87 89 91 90
63 58 62 65 66 68 69 67 71 74 69 61 60 69 85 83 86 86 91 94 97 98 99 98 97 96 95 95 94 92 90 87 87 88 88 88 88 89 88 89 88 88 88 89
62 59 54 62 69 70 68 69 72 63 61 68 68 71 88 88 91 91 92 95 98 99 100 99 99 96 95 94 94 93 92 90 89 90 88 87 88 89 89 88 89 89 87 88
61 56 49 55 65 68 64 68 70 73 74 64 63 67 88 88 87 90 90 91 92 93 97 99 99 96 94 94 93 93 93 93 93 91 90 89 88 88 88 88 88 89 88 88
58 57 52 51 54 58 54 60 63 67 62 65 67 71 80 83 84 84 85 86 88 89 91 95 97 97 95 93 92 92 94 96 95 93 91 88 87 88 89 89 88 88 88 87
57 48 54 56 58 57 55 56 58 58 63 62 69 70 77 82 81 80 82 83 82 85 89 90 94 95 94 93 92 91 93 94 95 93 91 89 88 88 88 88 88 88 88 88
58 47 51 49 56 57 54 58 59 60 61 63 65 66 81 82 82 80 79 80 80 82 84 86 89 92 94 93 91 91 91 93 94 91 91 90 88 87 87 87 88 87 87 87
50 49 46 44 55 53 49 58 60 62 64 64 59 69 79 73 78 77 74 76 77 79 81 83 84 87 91 95 93 91 91 93 91 90 89 89 87 86 86 87 87 86 86 87
49 47 47 45 50 39 59 63 62 63 66 69 69 72 71 70 75 76 75 73 74 76 77 79 83 86 90 95 99 94 94 90 90 88 88 88 87 86 86 86 86 85 87 86
57 45 43 42 45 53 56 48 48 45 59 64 64 68 68 68 72 72 74 75 73 73 75 78 82 85 87 90 95 95 92 91 89 88 87 88 88 86 86 85 85 86 86 86
55 53 40 43 38 37 42 45 49 48 41 56 60 61 61 64 63 72 72 73 71 72 74 77 81 85 90 90 95 95 90 90 87 87 88 88 88 87 86 86 85 86 86 86
38 38 35 38 37 48 50 52 49 36 41 52 54 55 59 56 65 69 72 71 67 68 68 74 80 82 88 95 93 93 90 89 89 90 89 88 88 86 87 86 86 86 86 88
34 32 34 36 34 35 52 52 39 43 47 50 52 54 55 57 62 69 69 67 66 65 66 71 73 75 84 93 92 90 87 89 88 90 89 88 87 88 89 86 85 85 85 84
34 40 38 41 44 52 50 48 52 50 46 49 49 52 54 56 59 65 66 63 62 65 63 67 71 74 77 84 91 86 86 88 88 88 87 86 86 87 90 85 84 86 84 88
37 37 36 40 49 49 46 52 52 51 50 50 53 52 55 56 57 60 62 61 61 62 62 64 66 72 71 74 78 79 84 87 86 85 85 86 85 84 87 90 89 89 90 88
37 37 36 38 46 42 46 48 49 50 52 51 53 53 54 56 56 58 59 59 59 61 62 63 63 64 67 71 73 77 79 85 85 85 86 86 88 85 87 89 91 91 92 90
38 36 34 34 40 40 42 47 49 48 49 51 50 52 55 55 55 57 57 59 60 60 63 61 62 62 64 68 70 73 76 79 83 84 86 88 91 89 90 90 89 57 57 54
MSLP
1006.74 1006.11 1004.49 1004.11 1004.19 1003.29 1002.82 1001.98 1001.36 1001.37 1001.22 1001.75 1001.63 1001.91 1003.43 1004.86 1005.37 1005.88 1006.67 1007.70 1008.33 1008.94 1009.97 1010.92 1011.83 1012.60 1013.24 1013.97 1014.88 1015.66 1016.23 1016.79 1017.35 1017.56 1017.59 1017.58 1017.64 1017.96 1018.12 1018.20 1018.73 1019.09 1019.32 1019.55
1006.37 1004.87 1004.45 1004.47 1004.39 1004.29 1003.68 1002.93 1001.92 1001.24 1001.41 1001.77 1001.26 1001.39 1001.67 1003.57 1004.53 1005.03 1005.70 1006.78 1007.54 1008.41 1009.24 1010.23 1011.16 1011.88 1012.59 1013.44 1014.32 1015.19 1015.86 1016.55 1017.12 1017.17 1017.22 1017.15 1017.31 1017.42 1017.54 1017.79 1018.38 1018.69 1019.06 1019.39
1004.93 1003.96 1004.50 1004.53 1004.43 1004.57 1003.80 1003.05 1002.20 1001.68 1001.72 1001.96 1001.40 1000.94 1001.18 1002.11 1003.76 1004.43 1005.24 1006.07 1006.85 1007.45 1008.23 1009.37 1010.33 1011.05 1011.94 1012.67 1013.57 1014.51 1015.30 1016.00 1016.65 1016.77 1017.16 1017.38 1017.43 1017.49 1017.73 1017.82 1018.07 1018.31 1018.74 1019.06
1004.89 1004.22 1004.48 1004.20 1004.11 1004.26 1003.21 1003.39 1003.34 1002.65 1002.14 1000.87 1001.30 999.83 1000.13 1000.98 1002.44 1003.37 1004.19 1005.01 1005.74 1006.44 1007.52 1008.33 1009.40 1010.15 1010.79 1011.75 1012.89 1013.91 1014.89 1015.46 1016.10 1016.59 1016.61 1016.89 1016.78 1016.75 1016.90 1017.27 1017.48 1017.83 1018.46 1018.70
1003.97 1004.02 1004.01 1003.91 1003.66 1003.69 1003.17 1003.15 1003.35 1003.30 1002.54 1001.40 1000.09 1000.00 998.41 999.55 1000.66 1001.77 1002.69 1003.51 1004.41 1005.39 1006.13 1006.93 1007.89 1008.86 1009.77 1010.95 1011.84 1013.01 1014.23 1015.00 1015.33 1015.93 1016.17 1016.59 1016.63 1016.40 1016.73 1017.09 1017.43 1017.97 1018.24 1018.63
1003.98 1003.58 1003.51 1003.42 1003.49 1003.56 1003.66 1003.64 1003.54 1003.20 1002.53 1000.81 1000.05 999.65 997.94 998.19 999.13 1000.26 1001.23 1002.20 1003.07 1003.89 1004.95 1005.80 1006.79 1008.02 1009.05 1010.10 1011.07 1012.02 1013.23 1014.16 1014.87 1015.36 1015.95 1016.13 1016.20 1016.29 1016.37 1016.87 1017.03 1017.43 1017.75 1018.00
1004.09 1003.22 1003.55 1003.25 1002.97 1003.25 1003.55 1003.07 1001.88 1001.66 1000.81 999.17 999.51 998.95 997.93 997.27 997.89 998.79 999.52 1000.73 1001.78 1002.69 1003.60 1004.61 1005.60 1006.67 1007.80 1008.79 1009.87 1010.93 1012.12 1013.19 1014.06 1014.69 1015.17 1015.63 1016.03 1016.36 1016.50 1016.79 1016.91 1016.83 1017.04 1017.29
1003.66 1002.97 1002.80 1002.84 1002.41 1002.01 1002.42 1001.85 1000.26 999.13 998.53 998.59 998.90 996.91 997.14 998.05 998.32 998.13 998.55 999.12 1000.41 1001.47 1002.42 1003.38 1004.39 1005.48 1006.62 1007.66 1008.71 1009.86 1010.79 1011.99 1012.95 1013.80 1014.38 1015.00 1015.53 1015.78 1016.16 1016.48 1016.33 1016.50 1016.58 1016.72
1005.17 1003.95 1003.82 1003.98 1003.11 1002.45 1001.56 1001.39 1000.64 999.14 998.19 997.61 996.75 997.41 997.17 997.03 997.61 998.25 998.36 998.63 999.15 1000.05 1001.00 1002.00 1003.13 1004.35 1005.41 1006.59 1007.63 1008.69 1009.72 1011.01 1011.77 1012.59 1013.61 1014.23 1014.83 1015.27 1015.23 1015.68 1016.12 1016.32 1016.47 1016.51
1007.65 1006.12 1004.65 1004.18 1004.71 1003.71 1002.28 1001.34 1000.97 999.93 998.54 997.28 996.52 995.77 995.93 996.67 997.03 997.09 997.47 997.83 998.24 998.81 999.71 1000.73 1001.81 1003.07 1004.22 1005.33 1006.57 1007.77 1008.85 1009.81 1010.49 1011.46 1012.47 1013.21 1013.83 1014.48 1014.99 1015.29 1015.73 1015.85 1016.01 1016.44
1009.51 1008.16 1005.55 1005.64 1003.99 1002.63 1002.61 1001.98 1000.79 999.87 999.30 997.65 996.79 995.37 995.34 995.59 996.14 996.75 996.72 997.00 997.25 997.71 998.33 999.53 1000.51 1001.68 1002.93 1004.21 1005.50 1006.62 1007.83 1008.81 1009.74 1010.33 1011.18 1012.08 1012.75 1013.43 1014.15 1014.63 1015.08 1015.53 1015.88 1016.09
1010.43 1009.25 1007.08 1005.33 1004.69 1004.52 1003.76 1001.83 1001.19 999.85 999.17 998.63 997.21 995.77 995.76 995.95 995.88 996.31 996.56 996.60 996.78 997.23 997.73 998.75 999.73 1000.95 1001.99 1003.02 1004.03 1005.18 1006.31 1007.44 1008.31 1009.03 1010.01 1010.88 1011.71 1012.40 1013.08 1013.77 1014.25 1014.82 1015.27 1015.61
1011.21 1009.58 1008.28 1006.61 1005.67 1005.18 1004.39 1003.30 1002.54 1000.87 999.80 998.27 997.55 996.88 996.18 996.64 996.73 997.09 997.47 997.56 997.67 997.89 997.87 998.21 999.00 999.80 1000.93 1001.96 1002.99 1003.85 1005.01 1005.93 1006.87 1007.93 1008.84 1009.69 1010.57 1011.37 1012.05 1012.66 1013.37 1013.92 1014.50 1014.91
1013.05 1010.79 1009.43 1007.04 1006.82 1006.83 1006.16 1005.24 1004.51 1002.70 1000.75 999.59 998.25 997.27 996.74 997.11 997.45 998.13 998.75 999.11 999.02 998.82 998.55 998.24 998.49 999.13 1000.13 1001.07 1002.05 1002.92 1003.81 1004.72 1005.65 1006.69 1007.64 1008.57 1009.45 1010.21 1010.90 1011.63 1012.40 1013.05 1013.64 1014.17
1013.28 1011.54 1010.44 1009.42 1008.80 1008.50 1007.79 1006.93 1005.90 1004.59 1003.10 1000.77 999.68 998.60 997.95 997.76 998.48 999.79 1000.01 1000.13 1000.14 999.73 999.24 999.33 999.12 999.13 999.79 1000.59 1001.33 1002.33 1003.13 1003.86 1004.56 1005.59 1006.52 1007.37 1008.33 1009.31 1010.13 1010.79 1011.46 1012.17 1012.75 1013.26
1013.32 1012.45 1011.64 1010.45 1009.37 1008.54 1007.64 1006.86 1006.21 1005.41 1004.60 1003.41 1002.09 1000.42 999.38 999.53 1000.01 1000.42 1000.75 1000.68 1000.45 1000.15 1000.23 1000.13 999.82 999.47 999.28 999.74 1000.59 1001.41 1002.23 1002.81 1003.73 1004.40 1005.35 1006.40 1007.54 1008.30 1009.02 1009.89 1010.61 1011.34 1011.89 1012.41
1013.85 1013.05 1012.09 1010.34 1009.27 1008.86 1007.51 1006.11 1005.87 1005.46 1005.03 1004.25 1002.94 1002.13 1001.04 1001.75 1001.21 1001.37 1001.89 1001.80 1001.68 1001.53 1001.17 1000.78 1000.35 999.94 999.39 999.04 999.73 1000.39 1001.26 1002.41 1002.89 1003.54 1004.59 1005.53 1006.51 1007.35 1008.02 1008.85 1009.72 1010.31 1010.93 1011.53
1014.05 1013.59 1012.87 1011.27 1010.13 1008.37 1006.46 1007.24 1007.12 1005.65 1005.05 1004.76 1004.17 1003.28 1003.42 1003.71 1003.13 1002.92 1003.13 1002.99 1002.71 1002.39 1002.04 1001.41 1000.69 1000.04 999.61 998.99 998.53 999.79 1000.67 1001.61 1002.41 1003.25 1004.04 1004.75 1005.55 1006.43 1007.33 1008.09 1008.71 1009.36 1010.03 1010.43
1014.01 1014.70 1013.51 1011.81 1009.93 1008.35 1007.74 1010.17 1010.30 1009.61 1006.47 1006.74 1006.60 1005.60 1005.53 1005.46 1004.64 1003.75 1003.89 1003.69 1003.37 1003.16 1002.72 1001.99 1001.28 1000.40 999.62 998.72 998.20 998.55 999.73 1000.57 1001.62 1002.30 1003.01 1003.83 1004.66 1005.59 1006.51 1007.18 1007.80 1008.44 1009.11 1009.50
1013.87 1014.33 1014.82 1012.87 1011.49 1010.01 1011.10 1012.32 1012.43 1012.21 1010.67 1009.83 1009.09 1008.10 1007.67 1006.74 1004.79 1003.83 1004.72 1004.50 1004.44 1004.01 1003.29 1001.96 1000.51 999.34 997.97 997.59 997.57 997.65 998.73 999.60 1000.29 1001.05 1001.84 1003.00 1003.91 1004.59 1005.35 1006.18 1006.91 1007.61 1008.26 1008.52
1014.90 1015.33 1015.12 1014.47 1013.10 1011.39 1012.00 1012.69 1013.45 1013.57 1012.98 1012.22 1011.33 1010.42 1009.37 1008.28 1006.93 1006.10 1005.73 1005.53 1005.50 1004.73 1003.71 1002.14 1000.51 999.11 997.18 995.98 996.61 996.71 998.00 998.45 999.47 1001.07 1001.88 1002.67 1003.43 1004.12 1004.67 1005.46 1006.12 1006.70 1007.25 1007.54
1016.29 1016.39 1015.72 1015.35 1014.02 1012.61 1013.21 1013.07 1013.97 1014.08 1013.88 1013.23 1012.39 1011.61 1010.66 1009.64 1008.38 1006.94 1006.52 1006.47 1005.97 1005.26 1004.23 1002.85 1001.22 999.95 998.19 996.27 996.42 996.89 997.90 999.01 1000.02 1000.61 1001.23 1001.95 1002.76 1003.55 1004.18 1004.98 1005.57 1006.13 1006.63 1007.08
1017.56 1017.28 1016.39 1015.21 1013.57 1013.60 1014.17 1014.31 1014.29 1014.47 1014.28 1013.75 1013.10 1012.34 1011.52 1010.41 1009.37 1008.27 1007.40 1006.99 1006.55 1005.87 1005.17 1004.11 1002.44 1001.05 999.76 998.18 997.20 997.99 998.52 999.25 999.76 1000.22 1000.77 1001.51 1002.37 1003.09 1003.33 1004.24 1004.94 1005.48 1005.91 1005.96
1018.52 1018.60 1017.65 1016.32 1014.21 1014.53 1014.72 1013.96 1014.26 1014.39 1014.01 1013.77 1013.11 1012.34 1011.55 1010.71 1010.00 1009.11 1008.40 1007.87 1007.23 1006.51 1005.73 1004.99 1004.06 1002.80 1001.69 1000.81 1000.03 999.68 999.38 999.48 999.75 1000.10 1000.54 1001.11 1001.86 1002.54 1003.02 1003.51 1004.08 1004.39 1004.43 1004.84
1019.34 1018.93 1017.89 1016.72 1015.57 1015.51 1014.77 1014.61 1014.53 1014.18 1013.83 1013.45 1012.98 1012.23 1011.59 1010.92 1010.24 1009.61 1008.89 1008.27 1007.82 1007.05 1006.25 1005.70 1004.91 1004.53 1003.61 1002.74 1001.99 1001.27 1000.54 999.85 999.63 999.92 1000.00 1000.42 1001.00 1001.96 1002.33 1002.65 1003.04 1003.54 1003.41 1003.52
1019.55 1018.95 1018.43 1017.39 1016.87 1016.37 1015.57 1015.17 1014.76 1014.16 1013.43 1012.95 1012.47 1011.80 1011.51 1011.11 1010.39 1009.93 1009.28 1008.59 1008.03 1007.34 1006.59 1006.13 1005.74 1005.47 1004.83 1003.97 1003.51 1002.84 1001.93 1000.70 999.91 999.95 1000.02 1000.02 1000.11 1001.15 1001.62 1002.15 1003.12 1004.14 1004.89 1005.24
Wind_Speed
17 16 21 20 18 17 10 11 17 16 10 17 18 16 16 14 14 16 18 19 20 22 22 21 21 20 20 19 18 17 16 14 11 9 10 9 8 7 6 5 4 6 5 5
11 20 18 15 15 16 14 12 14 11 15 14 17 17 13 18 15 16 18 19 20 21 23 22 22 21 21 20 19 18 17 15 12 10 9 8 7 7 6 4 5 6 7 6
17 6 19 15 16 16 19 18 13 14 15 13 16 17 16 17 15 15 16 17 18 21 23 24 23 23 22 22 21 19 18 17 14 12 9 7 7 4 7 6 7 7 8 8
17 20 6 19 20 19 19 18 15 12 11 14 20 14 20 18 19 19 19 20 21 22 22 23 24 25 24 23 21 20 19 17 16 15 12 12 10 10 8 6 6 6 7 7
15 15 19 16 17 21 17 11 15 18 16 17 15 14 12 23 19 21 21 22 22 23 24 25 27 26 25 23 22 20 19 17 16 16 13 12 12 9 8 7 7 7 6 7
18 15 14 22 14 15 9 12 15 15 16 19 22 16 17 16 19 21 21 22 23 24 25 24 24 24 22 22 21 21 20 17 18 17 18 15 13 11 9 9 8 7 7 8
17 16 15 10 18 18 16 17 11 12 16 17 22 22 15 7 21 19 20 22 23 23 23 24 24 24 24 25 24 22 21 20 20 20 18 18 16 15 12 10 10 8 8 7
11 16 20 16 19 16 22 19 13 18 15 16 22 18 22 23 2 13 18 19 21 22 22 24 25 24 24 26 26 24 22 22 22 21 18 16 17 13 12 13 10 9 8 7
6 17 2 3 13 17 16 24 21 23 9 12 16 21 15 18 23 17 13 12 18 20 23 25 25 25 25 25 25 25 22 22 22 23 17 17 16 16 14 13 12 11 9 7
5 9 5 9 8 17 20 11 20 16 20 19 14 18 16 23 17 20 21 18 16 18 21 22 23 26 24 25 25 26 24 23 22 23 19 18 18 17 15 13 14 12 11 11
8 6 6 5 14 20 16 17 16 17 17 15 16 12 11 16 21 21 15 16 17 17 17 20 21 24 25 23 24 25 25 25 23 22 20 19 18 19 17 16 15 14 13 12
4 8 11 16 7 7 12 14 26 15 23 17 18 13 7 5 17 14 18 16 17 18 14 16 19 21 23 25 24 25 25 25 24 21 20 21 19 18 18 17 17 15 14 14
1 7 9 15 16 9 10 9 12 18 20 22 18 17 8 9 2 5 7 4 3 5 10 14 17 19 22 23 22 24 24 25 24 22 23 21 21 19 18 18 17 16 15 15
7 12 12 14 12 12 5 9 6 16 17 15 17 12 19 17 13 5 7 6 5 4 6 11 14 18 20 21 21 21 24 24 23 23 23 21 20 19 20 18 17 17 16 16
8 14 12 14 14 12 15 15 15 16 16 21 18 20 19 7 6 8 9 7 6 6 4 4 11 14 17 19 20 21 22 21 22 21 22 21 19 19 18 17 17 17 17 16
8 13 9 15 17 14 18 17 18 19 19 17 17 19 13 10 12 12 7 9 8 7 7 8 7 11 15 19 21 21 21 22 21 21 21 19 19 19 18 17 17 17 17 16
9 10 9 13 12 9 16 21 23 20 20 18 19 15 11 8 14 7 8 8 9 8 9 10 10 11 13 17 19 22 21 20 21 20 20 19 19 19 19 18 17 17 17 16
15 12 9 11 9 16 3 11 12 19 19 22 17 12 6 10 13 2 7 10 11 11 12 12 12 12 14 15 18 19 21 20 20 19 19 19 19 19 18 18 18 17 16 16
16 9 9 11 11 14 6 10 10 14 5 1 12 12 10 12 14 17 9 12 13 14 14 14 14 15 15 16 17 18 20 21 21 21 21 20 20 19 18 19 18 16 16 15
18 17 8 11 12 14 7 5 10 8 4 10 11 10 12 13 11 4 12 14 16 15 14 16 17 16 16 17 19 20 22 20 22 23 22 19 19 19 19 18 17 16 16 16
11 11 15 14 12 11 6 6 3 7 3 12 10 12 13 9 12 10 12 13 15 15 16 17 13 13 16 13 19 19 20 23 21 19 20 18 18 17 17 16 15 15 15 14
5 7 8 10 9 17 7 1 3 4 10 11 13 13 13 12 14 11 11 13 15 17 17 18 12 11 13 8 13 14 16 14 15 16 18 17 17 15 15 16 15 15 14 14
3 4 4 6 5 6 7 9 9 7 11 14 14 14 15 14 13 14 11 13 14 15 13 16 14 11 13 14 6 11 12 14 16 16 16 16 16 16 13 15 14 13 14 13
1 1 5 5 2 7 12 10 7 10 12 12 13 14 15 13 12 13 10 11 12 13 13 13 13 15 15 12 11 8 4 10 14 15 15 15 15 15 14 13 13 13 13 13
3 8 6 6 9 12 6 6 9 13 12 11 11 11 14 11 11 11 10 10 10 10 9 11 13 13 15 13 13 11 9 11 13 14 14 14 12 13 13 12 11 12 12 11
4 4 4 4 9 8 8 10 13 13 13 10 10 9 12 12 10 10 9 9 10 9 7 8 10 11 14 12 13 14 13 9 6 9 9 10 10 10 10 10 9 9 11 12
Wind_Direction
196 206 210 210 218 241 300 231 227 216 192 212 221 210 167 182 191 181 180 183 188 191 186 185 191 187 188 189 185 189 192 189 189 193 196 189 194 191 200 212 190 176 184 186
181 224 215 225 218 230 232 232 227 223 210 220 219 229 211 175 200 195 186 186 189 188 188 191 191 191 193 191 190 189 193 191 197 195 205 202 202 193 205 183 167 185 179 179
220 191 221 216 220 221 228 230 228 231 192 221 246 231 214 179 205 200 201 190 191 192 191 191 193 196 195 193 194 193 192 190 195 203 197 192 193 215 198 184 188 181 185 185
235 241 218 209 226 214 231 216 242 244 248 225 213 233 206 198 202 200 198 194 197 193 197 192 195 198 198 198 195 195 196 193 193 195 192 197 200 202 202 203 190 177 196 195
213 214 214 219 226 221 238 235 217 237 245 258 190 237 229 195 198 203 207 198 197 200 195 197 197 199 200 197 196 195 195 198 198 191 212 194 220 205 199 209 190 225 176 208
257 197 223 229 221 228 219 232 224 229 235 237 232 219 227 193 200 204 204 205 203 199 199 202 199 199 200 199 198 194 193 197 201 195 201 205 206 226 209 202 199 217 210 197
221 236 223 223 207 208 209 204 212 205 214 233 219 232 236 229 180 210 199 201 203 205 201 201 199 197 198 199 197 197 192 196 197 201 199 204 210 207 212 207 211 222 214 214
231 210 215 203 229 199 208 223 223 210 210 221 222 224 220 233 48 218 225 194 203 203 206 203 201 199 197 200 198 199 190 194 195 199 202 201 204 210 215 211 235 219 229 222
286 241 68 240 235 244 196 219 239 261 266 265 208 217 241 219 223 205 200 215 201 201 204 205 202 202 199 197 199 196 193 195 194 197 199 202 203 217 216 224 213 232 233 240
53 275 183 153 234 241 258 225 220 235 242 241 228 225 206 215 222 219 224 219 211 212 206 206 203 201 201 199 199 198 198 196 196 195 199 204 207 208 219 216 223 225 230 220
317 261 167 210 209 223 205 236 234 236 226 236 240 210 229 231 208 216 212 217 222 222 208 208 204 203 203 200 198 199 199 200 202 199 197 204 205 208 211 218 220 221 221 220
39 301 269 253 95 332 294 264 224 231 218 237 270 225 104 208 211 199 220 230 238 225 213 205 205 201 200 201 199 197 198 200 201 200 197 198 201 205 207 215 220 217 218 215
41 228 257 233 238 228 242 220 277 262 241 232 223 231 184 170 178 164 206 268 270 281 248 215 202 196 201 201 202 201 200 199 197 198 198 200 203 205 208 211 213 215 214 216
281 268 265 275 344 357 275 229 266 265 236 231 238 244 224 226 244 355 347 1 346 321 300 226 208 203 199 201 198 202 202 201 198 194 198 197 199 201 204 207 208 209 210 214
262 265 256 267 278 276 273 265 263 256 264 252 241 226 251 227 18 332 317 315 315 310 321 243 231 213 206 202 202 200 205 201 198 193 197 196 195 199 203 204 204 205 208 212
228 260 268 271 269 258 266 261 250 247 246 256 268 280 288 329 310 283 314 321 322 325 308 298 270 249 222 211 205 201 204 202 199 193 197 193 194 196 200 201 202 204 207 211
247 259 259 262 262 276 262 253 240 243 233 239 237 246 255 286 270 327 327 324 328 317 308 303 290 270 254 222 208 208 204 201 198 195 194 193 192 197 199 198 201 203 205 208
255 254 256 267 289 240 212 37 305 281 223 226 252 259 307 298 308 11 2 340 328 329 318 307 293 276 259 249 218 206 201 199 197 199 195 194 194 197 197 197 202 202 204 206
225 248 254 245 249 270 317 30 8 353 174 303 279 282 310 296 274 258 2 350 341 332 316 302 289 279 265 251 230 202 203 195 195 198 196 196 192 193 195 199 201 203 206 207
222 216 229 278 256 254 55 23 5 346 248 17 331 323 329 305 244 118 356 351 345 337 328 314 304 290 265 235 234 199 197 195 197 197 195 194 193 192 194 196 197 199 204 210
209 213 223 234 250 261 97 22 74 218 85 330 326 323 321 329 328 329 345 346 342 347 338 326 323 311 305 228 217 191 193 202 198 194 193 193 195 196 194 193 196 197 202 209
177 185 198 227 250 249 14 95 214 338 312 314 321 317 314 315 316 327 344 344 348 353 356 352 344 347 326 262 209 182 195 191 191 196 194 191 190 195 192 197 198 202 203 209
257 336 275 256 245 22 1 292 287 279 288 299 309 307 304 306 314 319 338 341 339 350 356 357 354 24 15 1 195 186 189 190 193 193 191 187 190 194 194 192 197 199 202 216
323 309 249 314 329 326 327 296 258 276 293 290 293 291 291 296 309 317 332 336 337 342 347 352 13 28 27 22 35 19 181 201 190 190 186 183 187 191 202 190 196 206 204 206
321 310 288 262 290 326 285 265 314 302 294 280 291 310 308 295 298 314 325 330 330 329 343 358 10 14 24 22 29 26 348 188 189 188 182 180 184 188 193 209 202 207 219 214
335 303 324 300 311 299 290 314 313 310 298 284 280 291 293 299 297 309 320 327 329 320 340 1 6 9 9 19 23 23 10 13 137 162 173 176 175 170 196 193 204 64 27 9